Starlink 31368

operational
NORAD ID: 58970 Int'l Des: 2024-031 Owner: SPXS Country: US Constellation: starlink
LEOCIRCULAR

Über Starlink 31368

Beschreibung wird geladen...

Live-Position

3D-Globus wird geladen...

Nächste Überflüge

Höhenverlauf

Altitude vs Time

uPlot chart will show altitude changes over time

Zweizeiliger Elementsatz

1 58970U 24031F 26034.44325504 .00000976 00000-0 45089-4 0 9993
2 58970 53.1585 95.5099 0001354 88.4555 271.6601 15.30188009111295
Epoch: 3. Feb. 2026 • Age: 23 hours

Aktueller Status

Höhe 489.5 km
Geschwindigkeit 7.62 km/s
Subsatellitenpunkt -40.87°S, 32.58°E
Startdatum 15. Feb. 2024
Alter 1.9 years
Typ internet

Technische Details

Klassifizierung Payload
Masse 730.00 kg
Trockenmasse 700.00 kg
Gesamtmasse 730.00 kg
Länge 0.30 m
Durchmesser 4.10 m
Spannweite 29.00 m
Form Box + pan
Hersteller SPXS
Bus-Typ Starlink V2M
Phasenstatus In Orbit
Besitzer/Staat SPXS/US

Große Konstellationen

Loading constellations...